Time,TemperatureF,DewpointF,PressureIn,WindDirection,WindDirectionDegrees,WindSpeedMPH,WindSpeedGustMPH,Humidity,HourlyPrecipIn,Conditions,Clouds,dailyrainin,SolarRadiationWatts/m^2,SoftwareType,DateUTC
2013-03-24 00:22:00,6.0,1.0,-100.00,NW,317,5.0,10.0,78,0.00,,,0.01,0.000000,,2013-03-24 06:22:00,
2013-03-24 00:32:00,6.0,1.0,-100.00,NW,317,5.0,10.0,78,0.00,,,0.01,0.000000,,2013-03-24 06:32:00,
2013-03-24 00:42:00,6.0,1.0,-100.00,NW,317,5.0,10.0,78,0.00,,,0.01,0.000000,,2013-03-24 06:42:00,
2013-03-24 00:52:00,6.0,1.0,-100.00,NW,317,5.0,10.0,78,0.00,,,0.01,0.000000,,2013-03-24 06:52:00,
2013-03-24 01:22:00,5.0,0.0,-100.00,NNW,341,4.0,7.0,79,0.00,,,0.01,0.000000,,2013-03-24 07:22:00,
2013-03-24 01:32:00,5.0,0.0,-100.00,NNW,341,4.0,7.0,79,0.00,,,0.01,0.000000,,2013-03-24 07:32:00,
2013-03-24 01:42:00,5.0,0.0,-100.00,NNW,341,4.0,7.0,79,0.00,,,0.01,0.000000,,2013-03-24 07:42:00,
2013-03-24 01:52:00,5.0,0.0,-100.00,NNW,341,4.0,7.0,79,0.00,,,0.01,0.000000,,2013-03-24 07:52:00,
2013-03-24 02:22:00,5.0,1.0,-100.00,NNW,333,4.0,5.0,82,0.00,,,0.01,0.000000,,2013-03-24 08:22:00,
2013-03-24 02:32:00,5.0,1.0,-100.00,NNW,333,4.0,5.0,82,0.00,,,0.01,0.000000,,2013-03-24 08:32:00,
2013-03-24 02:42:00,5.0,1.0,-100.00,NNW,333,4.0,5.0,82,0.00,,,0.01,0.000000,,2013-03-24 08:42:00,
2013-03-24 02:52:00,5.0,1.0,-100.00,NNW,333,4.0,5.0,82,0.00,,,0.01,0.000000,,2013-03-24 08:52:00,
2013-03-24 03:22:00,3.0,-1.0,-100.00,NE,56,2.0,5.0,81,0.00,,,0.01,0.000000,,2013-03-24 09:22:00,
2013-03-24 03:33:00,3.0,-1.0,-100.00,NE,56,2.0,5.0,81,0.00,,,0.01,0.000000,,2013-03-24 09:33:00,
2013-03-24 03:42:00,3.0,-1.0,-100.00,NE,56,2.0,5.0,81,0.00,,,0.01,0.000000,,2013-03-24 09:42:00,
2013-03-24 03:52:00,3.0,-1.0,-100.00,NE,56,2.0,5.0,81,0.00,,,0.01,0.000000,,2013-03-24 09:52:00,
2013-03-24 04:22:00,2.0,-3.0,-100.00,East,87,2.0,4.0,80,0.00,,,0.01,0.000000,,2013-03-24 10:22:00,
2013-03-24 04:33:00,2.0,-3.0,-100.00,East,87,2.0,4.0,80,0.00,,,0.01,0.000000,,2013-03-24 10:33:00,
2013-03-24 04:42:00,2.0,-3.0,-100.00,East,87,2.0,4.0,80,0.00,,,0.01,0.000000,,2013-03-24 10:42:00,
2013-03-24 04:52:00,2.0,-3.0,-100.00,East,87,2.0,4.0,80,0.00,,,0.01,0.000000,,2013-03-24 10:52:00,
2013-03-24 05:22:00,3.0,-1.0,-100.00,ENE,65,3.0,4.0,81,0.00,,,0.01,0.000000,,2013-03-24 11:22:00,
2013-03-24 05:33:00,3.0,-1.0,-100.00,ENE,65,3.0,4.0,81,0.00,,,0.01,0.000000,,2013-03-24 11:33:00,
2013-03-24 05:42:00,3.0,-1.0,-100.00,ENE,65,3.0,4.0,81,0.00,,,0.01,0.000000,,2013-03-24 11:42:00,
2013-03-24 05:52:00,3.0,-1.0,-100.00,ENE,65,3.0,4.0,81,0.00,,,0.01,0.000000,,2013-03-24 11:52:00,
2013-03-24 06:22:00,3.0,-1.0,-100.00,East,90,2.0,3.0,81,0.00,,,0.01,0.000000,,2013-03-24 12:22:00,
2013-03-24 06:32:00,3.0,-1.0,-100.00,East,90,2.0,3.0,81,0.00,,,0.01,0.000000,,2013-03-24 12:32:00,
2013-03-24 06:42:00,3.0,-1.0,-100.00,East,90,2.0,3.0,81,0.00,,,0.01,0.000000,,2013-03-24 12:42:00,
2013-03-24 06:52:00,3.0,-1.0,-100.00,East,90,2.0,3.0,81,0.00,,,0.01,0.000000,,2013-03-24 12:52:00,
2013-03-24 07:22:00,4.0,0.0,-100.00,WSW,254,3.0,3.0,82,0.00,,,0.01,0.000000,,2013-03-24 13:22:00,
2013-03-24 07:32:00,4.0,0.0,-100.00,WSW,254,3.0,3.0,82,0.00,,,0.01,0.000000,,2013-03-24 13:32:00,
2013-03-24 07:42:00,4.0,0.0,-100.00,WSW,254,3.0,3.0,82,0.00,,,0.01,0.000000,,2013-03-24 13:42:00,
2013-03-24 07:52:00,4.0,0.0,-100.00,WSW,254,3.0,3.0,82,0.00,,,0.01,0.000000,,2013-03-24 13:52:00,
2013-03-24 08:22:00,4.0,0.0,-100.00,WSW,244,3.0,5.0,82,0.00,,,0.01,9.000000,,2013-03-24 14:22:00,
2013-03-24 08:32:00,4.0,0.0,-100.00,WSW,244,3.0,5.0,82,0.00,,,0.01,9.000000,,2013-03-24 14:32:00,
2013-03-24 08:42:00,4.0,0.0,-100.00,WSW,244,3.0,5.0,82,0.00,,,0.01,9.000000,,2013-03-24 14:42:00,
2013-03-24 08:52:00,4.0,0.0,-100.00,WSW,244,3.0,5.0,82,0.00,,,0.01,9.000000,,2013-03-24 14:52:00,
2013-03-24 09:22:00,7.0,2.0,-100.00,WSW,254,5.0,8.0,79,0.00,,,0.01,43.000000,,2013-03-24 15:22:00,
2013-03-24 09:33:00,7.0,2.0,-100.00,WSW,254,5.0,8.0,79,0.00,,,0.01,43.000000,,2013-03-24 15:33:00,
2013-03-24 09:43:00,7.0,2.0,-100.00,WSW,254,5.0,8.0,79,0.00,,,0.01,43.000000,,2013-03-24 15:43:00,
2013-03-24 09:53:00,7.0,2.0,-100.00,WSW,254,5.0,8.0,79,0.00,,,0.01,43.000000,,2013-03-24 15:53:00,
2013-03-24 10:23:00,11.0,3.0,-100.00,West,267,8.0,14.0,69,0.00,,,0.01,117.000000,,2013-03-24 16:23:00,
2013-03-24 10:33:00,11.0,3.0,-100.00,West,267,8.0,14.0,69,0.00,,,0.01,117.000000,,2013-03-24 16:33:00,
2013-03-24 10:42:00,11.0,3.0,-100.00,West,267,8.0,14.0,69,0.00,,,0.01,117.000000,,2013-03-24 16:42:00,
2013-03-24 10:52:00,11.0,3.0,-100.00,West,267,8.0,14.0,69,0.00,,,0.01,117.000000,,2013-03-24 16:52:00,
2013-03-24 11:23:00,12.0,2.0,-100.00,WSW,255,12.0,18.0,62,0.00,,,0.01,295.000000,,2013-03-24 17:23:00,
2013-03-24 11:33:00,12.0,2.0,-100.00,WSW,255,12.0,18.0,62,0.00,,,0.01,295.000000,,2013-03-24 17:33:00,
2013-03-24 11:42:00,12.0,2.0,-100.00,WSW,255,12.0,18.0,62,0.00,,,0.01,295.000000,,2013-03-24 17:42:00,
2013-03-24 11:52:00,12.0,2.0,-100.00,WSW,255,12.0,18.0,62,0.00,,,0.01,295.000000,,2013-03-24 17:52:00,
2013-03-24 12:22:00,13.0,1.0,-100.00,WSW,258,14.0,21.0,58,0.00,,,0.01,682.000000,,2013-03-24 18:22:00,
2013-03-24 12:32:00,13.0,1.0,-100.00,WSW,258,14.0,21.0,58,0.00,,,0.01,682.000000,,2013-03-24 18:32:00,
2013-03-24 12:43:00,13.0,1.0,-100.00,WSW,258,14.0,21.0,58,0.00,,,0.01,682.000000,,2013-03-24 18:43:00,
2013-03-24 12:52:00,13.0,1.0,-100.00,WSW,258,14.0,21.0,58,0.00,,,0.01,682.000000,,2013-03-24 18:52:00,
2013-03-24 13:22:00,11.0,3.0,-100.00,WSW,257,12.0,19.0,71,0.00,,,0.01,461.000000,,2013-03-24 19:22:00,
2013-03-24 13:32:00,11.0,3.0,-100.00,WSW,257,12.0,19.0,71,0.00,,,0.01,461.000000,,2013-03-24 19:32:00,
2013-03-24 13:42:00,11.0,3.0,-100.00,WSW,257,12.0,19.0,71,0.00,,,0.01,461.000000,,2013-03-24 19:42:00,
2013-03-24 13:52:00,11.0,3.0,-100.00,WSW,257,12.0,19.0,71,0.00,,,0.01,461.000000,,2013-03-24 19:52:00,
2013-03-24 14:22:00,11.0,6.0,-100.00,WSW,256,13.0,19.0,80,0.00,,,0.01,433.000000,,2013-03-24 20:22:00,
2013-03-24 14:32:00,11.0,6.0,-100.00,WSW,256,13.0,19.0,80,0.00,,,0.01,433.000000,,2013-03-24 20:32:00,
2013-03-24 14:42:00,11.0,6.0,-100.00,WSW,256,13.0,19.0,80,0.00,,,0.01,433.000000,,2013-03-24 20:42:00,
2013-03-24 14:52:00,11.0,6.0,-100.00,WSW,256,13.0,19.0,80,0.00,,,0.01,433.000000,,2013-03-24 20:52:00,
2013-03-24 15:22:00,14.0,8.0,-100.00,WSW,253,11.0,19.0,75,0.00,,,0.01,456.000000,,2013-03-24 21:22:00,
2013-03-24 15:33:00,14.0,8.0,-100.00,WSW,253,11.0,19.0,75,0.00,,,0.01,456.000000,,2013-03-24 21:33:00,
2013-03-24 15:43:00,14.0,8.0,-100.00,WSW,253,11.0,19.0,75,0.00,,,0.01,456.000000,,2013-03-24 21:43:00,
2013-03-24 15:52:00,14.0,8.0,-100.00,WSW,253,11.0,19.0,75,0.00,,,0.01,456.000000,,2013-03-24 21:52:00,
2013-03-24 16:23:00,11.0,3.0,-100.00,WSW,254,13.0,24.0,71,0.00,,,0.00,387.000000,,2013-03-24 22:23:00,
2013-03-24 16:33:00,11.0,3.0,-100.00,WSW,254,13.0,24.0,71,0.00,,,0.00,387.000000,,2013-03-24 22:33:00,
2013-03-24 16:43:00,11.0,3.0,-100.00,WSW,254,13.0,24.0,71,0.00,,,0.00,387.000000,,2013-03-24 22:43:00,
2013-03-24 16:52:00,11.0,3.0,-100.00,WSW,254,13.0,24.0,71,0.00,,,0.00,387.000000,,2013-03-24 22:52:00,
2013-03-24 17:22:00,11.0,4.0,-100.00,WSW,254,12.0,20.0,72,0.00,,,0.00,256.000000,,2013-03-24 23:22:00,
2013-03-24 17:32:00,11.0,4.0,-100.00,WSW,254,12.0,20.0,72,0.00,,,0.00,256.000000,,2013-03-24 23:32:00,
2013-03-24 17:42:00,11.0,4.0,-100.00,WSW,254,12.0,20.0,72,0.00,,,0.00,256.000000,,2013-03-24 23:42:00,
2013-03-24 17:52:00,11.0,4.0,-100.00,WSW,254,12.0,20.0,72,0.00,,,0.00,256.000000,,2013-03-24 23:52:00,
2013-03-24 18:22:00,11.0,-2.0,-100.00,West,264,10.0,18.0,55,0.00,,,0.00,162.000000,,2013-03-25 00:22:00,
2013-03-24 18:32:00,11.0,-2.0,-100.00,West,264,10.0,18.0,55,0.00,,,0.00,162.000000,,2013-03-25 00:32:00,
2013-03-24 18:42:00,11.0,-2.0,-100.00,West,264,10.0,18.0,55,0.00,,,0.00,162.000000,,2013-03-25 00:42:00,
2013-03-24 18:52:00,11.0,-2.0,-100.00,West,264,10.0,18.0,55,0.00,,,0.00,162.000000,,2013-03-25 00:52:00,
2013-03-24 19:22:00,10.0,0.0,-100.00,West,275,5.0,14.0,63,0.00,,,0.00,111.000000,,2013-03-25 01:22:00,
2013-03-24 19:32:00,10.0,0.0,-100.00,West,275,5.0,14.0,63,0.00,,,0.00,111.000000,,2013-03-25 01:32:00,
2013-03-24 19:42:00,10.0,0.0,-100.00,West,275,5.0,14.0,63,0.00,,,0.00,111.000000,,2013-03-25 01:42:00,
2013-03-24 19:52:00,10.0,0.0,-100.00,West,275,5.0,14.0,63,0.00,,,0.00,111.000000,,2013-03-25 01:52:00,
2013-03-24 20:22:00,6.0,-2.0,-100.00,North,0,2.0,11.0,70,0.00,,,0.00,15.000000,,2013-03-25 02:22:00,
2013-03-24 20:33:00,6.0,-2.0,-100.00,North,0,2.0,11.0,70,0.00,,,0.00,15.000000,,2013-03-25 02:33:00,
2013-03-24 20:42:00,6.0,-2.0,-100.00,North,0,2.0,11.0,70,0.00,,,0.00,15.000000,,2013-03-25 02:42:00,
2013-03-24 20:52:00,6.0,-2.0,-100.00,North,0,2.0,11.0,70,0.00,,,0.00,15.000000,,2013-03-25 02:52:00,
2013-03-24 21:23:00,6.0,-2.0,-100.00,NNW,345,3.0,6.0,68,0.00,,,0.00,0.000000,,2013-03-25 03:23:00,
2013-03-24 21:33:00,6.0,-2.0,-100.00,NNW,345,3.0,6.0,68,0.00,,,0.00,0.000000,,2013-03-25 03:33:00,
2013-03-24 21:43:00,6.0,-2.0,-100.00,NNW,345,3.0,6.0,68,0.00,,,0.00,0.000000,,2013-03-25 03:43:00,
2013-03-24 21:52:00,6.0,-2.0,-100.00,NNW,345,3.0,6.0,68,0.00,,,0.00,0.000000,,2013-03-25 03:52:00,
2013-03-24 22:22:00,5.0,-3.0,-100.00,NNW,343,3.0,5.0,68,0.00,,,0.00,0.000000,,2013-03-25 04:22:00,
2013-03-24 22:33:00,5.0,-3.0,-100.00,NNW,343,3.0,5.0,68,0.00,,,0.00,0.000000,,2013-03-25 04:33:00,
2013-03-24 22:43:00,5.0,-3.0,-100.00,NNW,343,3.0,5.0,68,0.00,,,0.00,0.000000,,2013-03-25 04:43:00,
2013-03-24 22:52:00,5.0,-3.0,-100.00,NNW,343,3.0,5.0,68,0.00,,,0.00,0.000000,,2013-03-25 04:52:00,
2013-03-24 23:22:00,5.0,-4.0,-100.00,NW,324,3.0,5.0,67,0.00,,,0.00,0.000000,,2013-03-25 05:22:00,
2013-03-24 23:32:00,5.0,-4.0,-100.00,NW,324,3.0,5.0,67,0.00,,,0.00,0.000000,,2013-03-25 05:32:00,
2013-03-24 23:42:00,5.0,-4.0,-100.00,NW,324,3.0,5.0,67,0.00,,,0.00,0.000000,,2013-03-25 05:42:00,
2013-03-24 23:52:00,5.0,-4.0,-100.00,NW,324,3.0,5.0,67,0.00,,,0.00,0.000000,,2013-03-25 05:52:00,